| time (UTC) | temp C | wind direction | speed KPH | gust KPH | rain 1hr cm | rain 24hr cm | rain mn cm | humidity % | barometer mb |
| 20260506123711 | 3 | 296 | 4.8 | 8.0 | 0.00 | 0.00 | 0.00 | 69 | 1019.2 |
| 20260506122710 | 2 | 287 | 4.8 | 8.0 | 0.00 | 0.00 | 0.00 | 71 | 1019.0 |
| 20260506115710 | 1 | 299 | 4.8 | 4.8 | 0.00 | 0.00 | 0.00 | 71 | 1018.9 |
| 20260506114711 | 1 | 291 | 3.2 | 4.8 | 0.00 | 0.00 | 0.00 | 71 | 1018.9 |
| 20260506113711 | 1 | 305 | 3.2 | 4.8 | 0.00 | 0.00 | 0.00 | 70 | 1018.5 |
| 20260506112710 | 1 | 294 | 3.2 | 4.8 | 0.00 | 0.00 | 0.00 | 69 | 1018.7 |
| 20260506111711 | 1 | 294 | 1.6 | 3.2 | 0.00 | 0.00 | 0.00 | 69 | 1018.3 |
| 20260506110710 | 1 | 294 | 1.6 | 3.2 | 0.00 | 0.00 | 0.00 | 70 | 1018.3 |
| 20260506105710 | 1 | 294 | 1.6 | 4.8 | 0.00 | 0.00 | 0.00 | 71 | 1018.2 |
| 20260506104711 | 1 | 294 | 1.6 | 3.2 | 0.00 | 0.00 | 0.00 | 70 | 1018.1 |
| 20260506103711 | 1 | 294 | 1.6 | 4.8 | 0.00 | 0.00 | 0.00 | 69 | 1017.9 |
| 20260506102711 | 1 | 294 | 3.2 | 4.8 | 0.00 | 0.00 | 0.00 | 69 | 1018.0 |
| 20260506101711 | 1 | 296 | 1.6 | 4.8 | 0.00 | 0.00 | 0.00 | 69 | 1018.0 |
| 20260506095710 | 1 | 292 | 3.2 | 4.8 | 0.00 | 0.00 | 0.00 | 70 | 1017.8 |
| 20260506093710 | 2 | 298 | 0.0 | 3.2 | 0.00 | 0.00 | 0.00 | 67 | 1017.7 |
| 20260506092710 | 2 | 297 | 0.0 | 3.2 | 0.00 | 0.00 | 0.00 | 67 | 1017.5 |
| 20260506091710 | 2 | 302 | 1.6 | 4.8 | 0.00 | 0.00 | 0.00 | 67 | 1017.5 |
| 20260506090712 | 2 | 331 | 1.6 | 4.8 | 0.00 | 0.00 | 0.00 | 67 | 1017.5 |
| 20260506085710 | 2 | 313 | 1.6 | 4.8 | 0.00 | 0.00 | 0.00 | 67 | 1017.5 |
| 20260506083710 | 3 | 293 | 1.6 | 3.2 | 0.00 | 0.00 | 0.00 | 66 | 1017.0 |
| 20260506082710 | 3 | 293 | 3.2 | 4.8 | 0.00 | 0.00 | 0.00 | 64 | 1017.0 |
| 20260506081710 | 3 | 312 | 1.6 | 1.6 | 0.00 | 0.00 | 0.00 | 63 | 1016.8 |
| 20260506080711 | 3 | 312 | 0.0 | 0.0 | 0.00 | 0.00 | 0.00 | 61 | 1016.8 |
| 20260506072710 | 5 | 312 | 1.6 | 3.2 | 0.00 | 0.00 | 0.00 | 60 | 1016.8 |
| 20260506070711 | 5 | 9 | 0.0 | 0.0 | 0.00 | 0.00 | 0.00 | 55 | 1016.6 |
| 20260506061710 | 6 | 9 | 1.6 | 3.2 | 0.00 | 0.00 | 0.00 | 50 | 1016.4 |
| 20260506060710 | 6 | 11 | 1.6 | 3.2 | 0.00 | 0.00 | 0.00 | 49 | 1016.4 |
| 20260506044711 | 7 | 11 | 3.2 | 4.8 | 0.00 | 0.03 | 0.03 | 46 | 1015.9 |
| 20260506043710 | 7 | 5 | 1.6 | 4.8 | 0.00 | 0.03 | 0.03 | 46 | 1015.8 |
| 20260506042710 | 7 | 25 | 3.2 | 4.8 | 0.00 | 0.03 | 0.03 | 45 | 1015.7 |
| 20260506041711 | 8 | 19 | 1.6 | 4.8 | 0.00 | 0.03 | 0.03 | 44 | 1015.7 |
| 20260506040710 | 8 | 336 | 1.6 | 3.2 | 0.00 | 0.03 | 0.03 | 46 | 1015.8 |
| 20260506035710 | 8 | 11 | 1.6 | 4.8 | 0.00 | 0.03 | 0.03 | 43 | 1015.6 |
| 20260506034711 | 8 | 6 | 3.2 | 4.8 | 0.00 | 0.03 | 0.03 | 42 | 1015.6 |
| 20260506033710 | 8 | 5 | 1.6 | 4.8 | 0.00 | 0.03 | 0.03 | 43 | 1015.7 |
| 20260506031711 | 8 | 12 | 3.2 | 4.8 | 0.00 | 0.03 | 0.03 | 43 | 1015.2 |
| 20260506030710 | 8 | 30 | 3.2 | 4.8 | 0.00 | 0.03 | 0.03 | 42 | 1015.2 |
| 20260506025711 | 8 | 0 | 3.2 | 11.3 | 0.00 | 0.03 | 0.03 | 41 | 1015.1 |
| 20260506024711 | 8 | 13 | 3.2 | 8.0 | 0.00 | 0.03 | 0.03 | 42 | 1014.9 |
| 20260506023710 | 9 | 15 | 3.2 | 4.8 | 0.00 | 0.03 | 0.03 | 41 | 1014.8 |
| 20260506022710 | 9 | 334 | 4.8 | 8.0 | 0.00 | 0.03 | 0.03 | 40 | 1014.6 |
| 20260506021710 | 9 | 5 | 3.2 | 14.5 | 0.00 | 0.03 | 0.03 | 41 | 1014.3 |
| 20260506020710 | 10 | 354 | 4.8 | 16.1 | 0.00 | 0.03 | 0.03 | 40 | 1014.1 |
| 20260506015710 | 10 | 5 | 4.8 | 12.9 | 0.00 | 0.03 | 0.03 | 40 | 1014.0 |
| 20260506014710 | 10 | 11 | 3.2 | 8.0 | 0.00 | 0.03 | 0.03 | 39 | 1013.9 |
| 20260506013710 | 10 | 15 | 4.8 | 11.3 | 0.00 | 0.03 | 0.03 | 38 | 1013.6 |
| 20260506012710 | 10 | 22 | 6.4 | 16.1 | 0.00 | 0.03 | 0.03 | 37 | 1013.6 |
| 20260506011710 | 11 | 18 | 3.2 | 14.5 | 0.00 | 0.03 | 0.03 | 35 | 1013.6 |
| 20260506005710 | 11 | 331 | 11.3 | 24.1 | 0.00 | 0.03 | 0.03 | 34 | 1013.2 |
| 20260506004711 | 11 | 9 | 9.7 | 19.3 | 0.00 | 0.03 | 0.03 | 35 | 1013.1 |
| 20260506003710 | 11 | 348 | 9.7 | 16.1 | 0.00 | 0.03 | 0.03 | 35 | 1012.9 |
| 20260506002710 | 11 | 3 | 11.3 | 19.3 | 0.00 | 0.03 | 0.03 | 35 | 1012.8 |
| 20260506001710 | 11 | 349 | 9.7 | 22.5 | 0.00 | 0.03 | 0.03 | 36 | 1012.9 |
| 20260506000710 | 12 | 0 | 14.5 | 25.7 | 0.00 | 0.03 | 0.03 | 36 | 1012.9 |
| 20260505233710 | 12 | 334 | 16.1 | 27.4 | 0.00 | 0.03 | 0.03 | 36 | 1012.7 |
| 20260505232710 | 12 | 332 | 14.5 | 32.2 | 0.00 | 0.03 | 0.03 | 35 | 1012.6 |
| 20260505231711 | 12 | 325 | 16.1 | 27.4 | 0.00 | 0.03 | 0.03 | 38 | 1012.5 |
| 20260505230710 | 12 | 305 | 12.9 | 38.6 | 0.00 | 0.03 | 0.03 | 37 | 1012.5 |
| 20260505225710 | 12 | 304 | 12.9 | 29.0 | 0.00 | 0.03 | 0.03 | 37 | 1012.5 |
| 20260505223710 | 13 | 336 | 17.7 | 29.0 | 0.00 | 0.03 | 0.03 | 37 | 1012.5 |
| 20260505222711 | 13 | 17 | 14.5 | 33.8 | 0.00 | 0.03 | 0.03 | 38 | 1012.5 |
| 20260505220710 | 14 | 313 | 16.1 | 35.4 | 0.00 | 0.03 | 0.03 | 36 | 1012.4 |
| 20260505215710 | 14 | 298 | 20.9 | 32.2 | 0.00 | 0.03 | 0.03 | 38 | 1012.4 |
| 20260505214710 | 14 | 325 | 25.7 | 37.0 | 0.00 | 0.03 | 0.03 | 36 | 1012.2 |
| 20260505212710 | 14 | 335 | 22.5 | 38.6 | 0.00 | 0.03 | 0.03 | 37 | 1012.4 |
| 20260505211710 | 15 | 23 | 16.1 | 32.2 | 0.00 | 0.03 | 0.03 | 35 | 1012.3 |
| 20260505210710 | 15 | 327 | 19.3 | 29.0 | 0.00 | 0.03 | 0.03 | 39 | 1012.5 |
| 20260505205710 | 15 | 34 | 20.9 | 33.8 | 0.00 | 0.03 | 0.03 | 36 | 1012.4 |
| 20260505203710 | 15 | 286 | 20.9 | 27.4 | 0.00 | 0.03 | 0.03 | 40 | 1012.5 |
| 20260505200710 | 14 | 9 | 14.5 | 25.7 | 0.00 | 0.03 | 0.03 | 40 | 1012.9 |
| 20260505195710 | 14 | 315 | 6.4 | 27.4 | 0.00 | 0.03 | 0.03 | 40 | 1013.0 |
| 20260505194711 | 15 | 315 | 16.1 | 29.0 | 0.00 | 0.03 | 0.03 | 44 | 1013.1 |
| 20260505192710 | 15 | 264 | 16.1 | 25.7 | 0.00 | 0.03 | 0.03 | 44 | 1013.3 |
| 20260505191711 | 15 | 35 | 11.3 | 19.3 | 0.00 | 0.03 | 0.03 | 47 | 1013.3 |
| 20260505190711 | 15 | 327 | 11.3 | 25.7 | 0.00 | 0.03 | 0.03 | 42 | 1013.4 |
| 20260505185711 | 15 | 317 | 11.3 | 22.5 | 0.00 | 0.03 | 0.03 | 45 | 1013.3 |
| 20260505184711 | 13 | 325 | 11.3 | 20.9 | 0.00 | 0.03 | 0.03 | 44 | 1013.3 |
| 20260505182710 | 13 | 324 | 14.5 | 20.9 | 0.00 | 0.03 | 0.03 | 45 | 1013.5 |
| 20260505175710 | 13 | 309 | 9.7 | 22.5 | 0.00 | 0.03 | 0.03 | 51 | 1013.7 |
| 20260505174710 | 13 | 13 | 8.0 | 19.3 | 0.00 | 0.03 | 0.03 | 45 | 1013.8 |
| 20260505173710 | 12 | 308 | 6.4 | 19.3 | 0.00 | 0.03 | 0.03 | 49 | 1013.9 |
| 20260505172710 | 12 | 306 | 12.9 | 24.1 | 0.00 | 0.03 | 0.03 | 48 | 1014.2 |
| 20260505171711 | 12 | 288 | 8.0 | 19.3 | 0.00 | 0.03 | 0.03 | 45 | 1014.1 |
| 20260505170710 | 11 | 336 | 4.8 | 12.9 | 0.00 | 0.03 | 0.03 | 48 | 1014.0 |
| 20260505165710 | 12 | 298 | 8.0 | 14.5 | 0.00 | 0.03 | 0.03 | 56 | 1014.0 |
| 20260505163710 | 10 | 336 | 8.0 | 14.5 | 0.00 | 0.03 | 0.03 | 54 | 1014.0 |
| 20260505162710 | 11 | 336 | 8.0 | 19.3 | 0.00 | 0.03 | 0.03 | 56 | 1014.2 |
| 20260505161710 | 11 | 315 | 4.8 | 12.9 | 0.00 | 0.03 | 0.03 | 53 | 1014.1 |
| 20260505160710 | 10 | 297 | 4.8 | 9.7 | 0.00 | 0.03 | 0.03 | 55 | 1014.1 |
| 20260505152710 | 10 | 52 | 4.8 | 12.9 | 0.00 | 0.03 | 0.03 | 55 | 1013.3 |
| 20260505151710 | 10 | 15 | 3.2 | 11.3 | 0.00 | 0.03 | 0.03 | 60 | 1013.3 |
| 20260505150710 | 10 | 322 | 8.0 | 14.5 | 0.00 | 0.03 | 0.03 | 60 | 1013.3 |
| 20260505124711 | 6 | 325 | 3.2 | 4.8 | 0.00 | 0.03 | 0.03 | 73 | 1011.6 |